Regional Weather Roundup
Issued by NWS

Home | Current Version | Previous Version | Graphics & Text | Print | Product List | Glossary On
Versions: 1 2 3 4 5 6 7 8 9 10 11 12 13 14 15 16 17 18 19 20 21 22 23 24 25 26 27 28 29 30 31 32 33 34 35 36 37 38 39 40 41 42 43 44 45 46 47 48 49 50
163
ASUS43 KFSD 061410
RWRSD

WEATHER ROUNDUP FOR SOUTH DAKOTA
NATIONAL WEATHER SERVICE SIOUX FALLS SD
800 AM CST SAT FEB 06 2016

NOTE: "FAIR" INDICATES FEW OR NO CLOUDS BELOW 12,000 FEET WITH NO
SIGNIFICANT WEATHER AND/OR OBSTRUCTIONS TO VISIBILITY.


SDZ001>005-009-010-012>017-061500-
NORTHWEST AND NORTH CENTRAL SOUTH DAKOTA

CITY           SKY/WX    TMP DP  RH WIND       PRES   REMARKS
BUFFALO          N/A     33  19  56 W14       29.86S WCI  23
FAITH            N/A     32  19  58 SW15      29.94F WCI  22
MOBRIDGE       CLOUDY    29  23  78 SE9       29.90F WCI  20
$$

SDZ012>016-024>037-041>051-057-063-072>074-061500-
SOUTHWEST AND SOUTH CENTRAL SOUTH DAKOTA

CITY           SKY/WX    TMP DP  RH WIND       PRES   REMARKS
RAPID CTY ARPT CLOUDY    26  17  68 SW3       30.00F
PIERRE         CLOUDY    29  20  69 SW16      29.99F WCI  17
CUSTER         CLOUDY    29  11  47 VRB7      30.03S WCI  22
ELLSWORTH AFB  CLOUDY    33  19  57 SW10      29.98F WCI  25
PHILIP         CLOUDY    28  20  71 W9        30.02S WCI  19
PINE RIDGE     CLOUDY    26  16  65 W6        30.10S WCI  19
SPEARFISH      FAIR      41  18  38 SW18G26   29.98F
WINNER         FAIR      28  16  60 SW8       30.04F WCI  20
$$

SDZ004>011-016>023-039-040-061500-
NORTHEAST SOUTH DAKOTA

CITY           SKY/WX    TMP DP  RH WIND       PRES   REMARKS
ABERDEEN       CLOUDY    26  21  81 S12       29.96F WCI  16
WATERTOWN      CLOUDY    22  18  85 S9        29.98F WCI  12
BROOKINGS      CLOUDY    21  19  92 S8        30.03F WCI  11
SISSETON         N/A     32  23  69 W20       29.92F WCI  20
$$

SDZ017-020-022-023-036>040-048>070-061500-
SOUTHEAST SOUTH DAKOTA

CITY           SKY/WX    TMP DP  RH WIND       PRES   REMARKS
SIOUX FALLS    CLOUDY    20  17  88 S8        30.09F WCI  10
HURON          CLOUDY    24  19  81 S10       30.02F WCI  14
CHAMBERLAIN    CLOUDY    23  19  86 SW8       30.04F WCI  14
MITCHELL       CLOUDY    26  21  81 SW10      30.08F WCI  16
YANKTON        CLOUDY    16  12  86 CALM      30.13F
$$

ABBREVIATIONS USED IN REMARKS
   TC - TEMPERATURE IN CELSIUS
  WCI - WIND CHILL INDEX
   HX - HEAT INDEX
  VSB - VISIBILITY





USA.gov is the U.S. government's official web portal to all federal, state and local government web resources and services.